Regional Weather Roundup
Issued by NWS Charleston, SC

Home | Current Version | Previous Version | Text Only | Print | Product List | Glossary On
Versions: 1 2 3 4 5 6 7 8 9 10 11 12 13 14 15 16 17 18 19 20 21 22 23 24 25 26 27 28 29 30 31 32 33 34 35 36 37 38 39 40 41 42 43 44 45 46 47 48 49 50
000
ASUS42 KCHS 252112
RWRCHS

REGIONAL WEATHER ROUNDUP
NATIONAL WEATHER SERVICE CHARLESTON SC
500 PM EDT TUE APR 25 2017

NOTE: "FAIR" INDICATES FEW OR NO CLOUDS BELOW 12,000 FEET WITH NO
SIGNIFICANT WEATHER AND/OR OBSTRUCTIONS TO VISIBILITY.

NOT ALL STATIONS ARE QUALITY CONTROLLED. USE DATA WITH CAUTION...
ESPECIALLY DEWPOINT OBSERVATIONS.

SCZ027-030-031-034>040-042>050-252200-
...SOUTHEAST SOUTH CAROLINA...

CITY           SKY/WX    TMP DP  RH WIND       PRES   REMARKS
N CHARLESTON   CLOUDY    73  58  59 NW8       29.69S
WATERFRONT PRK   N/A     72  60  66 W7        29.67F
JOHNS ISLAND   CLOUDY    75  61  60 W7        29.69F
PINOPOLIS        N/A     72  63  73 W9        29.61S
MONCKS CORNER  CLOUDY    72  57  60 W5        29.69S
SUMMERVILLE    CLOUDY    73  59  60 W5        29.70S
BEAUFORT MCAS  CLOUDY    77  59  53 W9        29.70S
BEAUFORT ARPT  CLOUDY    77  59  53 W8        29.70S
HILTON HEAD IS PTSUNNY   77  57  50 SW9       29.71
WALTERBORO     CLOUDY    75  59  57 W7        29.70S
ALLENDALE      CLOUDY    73  61  64 N5        29.69S

...SOUTHERN MIDLANDS AND PEE DEE...

CITY           SKY/WX    TMP DP  RH WIND       PRES   REMARKS
GEORGETOWN     CLOUDY    68  61  77 W7        29.69S
KINGSTREE      CLOUDY    64  57  77 NW7       29.70R
ORANGEBURG     CLOUDY    73  59  61 NW8       29.70S
BARNWELL       CLOUDY    77  63  61 NW6       29.70S
AIKEN          CLOUDY    72  57  60 NW7       29.75R
MANNING        CLOUDY    70  57  64 MISG      29.69S
COLUMBIA       PTSUNNY   74  57  55 VRB6      29.69S
SUMTER         CLOUDY    68  58  69 W10       29.68S
FLORENCE       CLOUDY    65  59  81 W8        29.69S
MYRTLE BEACH   PTSUNNY   68  61  77 W12       29.68F
N MYRTLE BEACH CLOUDY    66  60  81 NW7       29.67R

$$

GAZ063-065-086>088-099>101-113>116-118-119-134>141-150-252200-
...SOUTHEAST GEORGIA...

CITY           SKY/WX    TMP DP  RH WIND       PRES   REMARKS
SAVANNAH ARPT  PTSUNNY   80  56  43 W7        29.70F
HUNTER AAF     PTSUNNY   81  63  53 W8        29.67F
FORT STEWART   PTSUNNY   80  56  44 W12G18    29.69F
STATESBORO     PTSUNNY   80  57  45 W12       29.70F
SYLVANIA       CLOUDY   N/A N/A N/A NW7       29.71S
CLAXTON        MOCLDY    79  62  56 SW9G18    29.71S

...CSRA...CENTRAL AND FAR SOUTHEAST GEORGIA...

CITY           SKY/WX    TMP DP  RH WIND       PRES   REMARKS
THOMSON        CLOUDY    75  58  54 N7        29.76S
AUGUSTA-BUSH   PTSUNNY   78  58  49 N10       29.70R
AUGUSTA-DANIEL PTSUNNY   77  55  46 NW8       29.72S
SWAINSBORO     CLOUDY    81  55  41 W9        29.71F
VIDALIA        PTSUNNY   81  55  41 W7G17     29.71F
EASTMAN        FAIR      82  38  20 W6        29.74F
HAZLEHURST     FAIR      82  57  43 NW6       29.72S
ALMA           SUNNY     82  56  40 NW10      29.72F
WAYCROSS       SUNNY     85  59  40 W12G18    29.72S
JESUP          MOCLDY    82  52  34 W8G17     29.72S
BAXLEY         FAIR      81  61  50 SW9       29.72S
BRUNSWICK      PTSUNNY   82  61  47 W8        29.72F
SAINT SIMONS   MOSUNNY   82  55  39 SW13      29.71F

$$

SCZ027-028-034-036>038-045-046-048>050-GAZ119-141-252200-
...LAKE AND SUPPLEMENTAL COASTAL OBSERVATIONS...

STATION/POSITION TIME  TEMP    WIND        PRES    WAVE   SWELL
                       AIR SEA DIR/SP/G            HT/PER HT/PER/DIR
                 (UTC) (F)     (DEG/KT/KT) (MB)    (FT/S) (FT/S/D)
WINYAH BAY       1945   69     280/  9     1005.0
LAKE MURRAY      2020   71     290/  3/  6 1005.1F
ACE BASIN NERRS  NOT AVBL
FORT PULASKI     2048   73 74  200/  7/ 12 1006.1F
SAPELO ISLAND    2000   78     260/ 10     1006.0

$$

ANZ835-935-AMZ111-154-330-350-352-354-370-450-454-472-252200-
...C-MAN AND BUOY OBSERVATIONS...

STATION/POSITION TIME  TEMP    WIND        PRES    WAVE   SWELL
                       AIR SEA DIR/SP/G            HT/PER HT/PER/DIR
                 (UTC) (F)     (DEG/KT/KT) (MB)    (FT/S) (FT/S/D)
BUOY 41004       2050   69 73  260/ 16/ 19 1005.5S   6/ 8   3/140/ 8
BUOY 41008       1950   72 72  180/  8/ 10 1006.6    3/ 9   3/ 70/ 9
FOLLY BEACH CMAN 2000   73     280/  5/  9 1006.2F
CAPERS NEARSHORE 2008   74 71  290/ 12/ 17 1005.4F
FRIPP NEARSHORE  2008   69 71  200/ 14/ 16 1005.6F


STATION/POSITION TIME  TEMP    WIND        PRES    WAVE   SWELL
                       AIR SEA DIR/SP/G            HT/PER HT/PER/DIR
                 (UTC) (F)     (DEG/KT/KT) (MB)    (FT/S) (FT/S/D)
5E ST. MARYS GA  2030      74                N/A     3/ 9   2/100/11
FRYING PAN BUOY  2050   67 74  260/ 17/ 21 1004.3R   6/10   5/130/10
BUOY 41025       2050   71 78  220/  8/ 12 1002.8F   7/10   7/130/10
CAPE LOOKOUT NC  2000   69     190/ 10/ 12 1002.6F
BUOY 41002       1950   74 75  230/ 17/ 21 1006.6    9/10   5/120/10
BUOY 41010       2050   72 78              1009.0F   5/ 9   3/ 90/ 9
ST AUGUSTINE FL  2100   80 74  240/ 11/ 14 1008.0F


$$



USA.gov is the U.S. government's official web portal to all federal, state and local government web resources and services.